Date String (YYYY-MM-DD hh:mm:ss) UTC,Instrument flags,Ambient pressure (hPa),Sample flow (lpm),Bypass flow (lpm),Sample temperature (°C),Ambient temperature (°C),ASC tube jacket temperature (°C),LED temperature (°C),Box temperature (°C),Sample RH (%),Mass concentration (μg/m³),Mass concentration (μg/m³)
DateTimeUTC,F1_M11,P_M11,Q1_M11,Q2_M11,T1_M11,T2_M11,T3_M11,T4_M11,T5_M11,U1_M11,X0_M11,X2_M11
2021-08-12 12:00:00,FlowAlarm;OPCInstrumentWarning,0829.6,4.98,0.00,29.9,29.2,00.0,39.0,31.9,16.5,0035.92,0024.60
2021-08-12 12:01:00,FlowAlarm;OPCInstrumentWarning,0829.5,5.01,0.00,29.9,29.2,00.0,39.0,31.9,16.6,0036.76,0024.82
2021-08-12 12:02:00,FlowAlarm;OPCInstrumentWarning,0829.5,4.99,0.00,30.0,29.2,00.0,39.1,31.9,16.6,0036.80,0025.10
2021-08-12 12:03:00,FlowAlarm;OPCInstrumentWarning,0829.5,5.00,0.00,30.0,29.3,00.0,39.1,31.9,16.5,0037.15,0025.24
2021-08-12 12:04:00,FlowAlarm;OPCInstrumentWarning,0829.5,4.98,0.00,30.0,29.3,00.0,39.1,32.0,16.3,0036.37,0025.14
2021-08-12 12:05:00,FlowAlarm;OPCInstrumentWarning,0829.5,5.01,0.00,30.0,29.3,00.0,39.1,32.0,16.2,0036.56,0025.05
2021-08-12 12:06:00,FlowAlarm;OPCInstrumentWarning,0829.6,4.99,0.00,30.1,29.4,00.0,39.2,32.0,16.2,0036.79,0025.05
2021-08-12 12:07:00,FlowAlarm;OPCInstrumentWarning,0829.6,5.00,0.00,30.1,29.1,00.0,39.2,31.9,16.4,0037.35,0025.02
2021-08-12 12:08:00,FlowAlarm;OPCInstrumentWarning,0829.6,5.01,0.00,30.0,27.3,00.0,39.2,31.5,16.5,0036.40,0024.97
2021-08-12 12:09:00,FlowAlarm;OPCInstrumentWarning,0829.6,4.99,0.00,29.9,26.5,00.0,39.1,31.3,16.6,0036.01,0024.90
2021-08-12 12:10:00,FlowAlarm;OPCInstrumentWarning,0829.6,5.01,0.00,29.8,26.7,00.0,39.1,31.4,16.9,0035.57,0024.79
2021-08-12 12:11:00,FlowAlarm;OPCInstrumentWarning,0829.6,5.00,0.00,29.7,27.1,00.0,39.0,31.3,17.3,0035.56,0024.75
2021-08-12 12:12:00,FlowAlarm;OPCInstrumentWarning,0829.6,5.00,0.00,29.6,27.5,00.0,39.0,31.4,17.5,0035.24,0024.73
2021-08-12 12:13:00,FlowAlarm;OPCInstrumentWarning,0829.9,4.99,0.00,29.6,27.8,00.0,39.0,31.4,17.4,0035.25,0024.64
2021-08-12 12:14:00,FlowAlarm;OPCInstrumentWarning,0829.6,5.00,0.00,29.6,28.0,00.0,39.0,31.5,17.8,0035.26,0024.64
2021-08-12 12:15:00,FlowAlarm;OPCInstrumentWarning,0829.7,5.00,0.00,29.6,28.2,00.0,38.9,31.5,17.9,0035.65,0024.73
2021-08-12 12:16:00,FlowAlarm;OPCInstrumentWarning,0829.8,5.01,0.00,29.6,28.4,00.0,38.9,31.6,17.8,0035.55,0024.81
2021-08-12 12:17:00,FlowAlarm;OPCInstrumentWarning,0829.8,5.01,0.00,29.7,28.5,00.0,38.9,31.6,18.0,0035.24,0024.84
2021-08-12 12:18:00,FlowAlarm;OPCInstrumentWarning,0829.8,5.01,0.00,29.7,28.6,00.0,38.9,31.6,17.9,0035.28,0024.91
2021-08-12 12:19:00,FlowAlarm;OPCInstrumentWarning,0829.8,5.01,0.00,29.7,28.7,00.0,38.9,31.7,17.9,0036.48,0025.01
2021-08-12 12:20:00,FlowAlarm;OPCInstrumentWarning,0829.9,4.99,0.00,29.7,28.8,00.0,38.9,31.7,17.8,0036.99,0025.09
2021-08-12 12:21:00,FlowAlarm;OPCInstrumentWarning,0829.9,5.01,0.00,29.8,28.9,00.0,39.0,31.7,17.7,0037.20,0025.11
2021-08-12 12:22:00,FlowAlarm;OPCInstrumentWarning,0829.9,4.99,0.00,29.8,28.9,00.0,39.0,31.8,18.0,0037.12,0025.19
2021-08-12 12:23:00,FlowAlarm;OPCInstrumentWarning,0829.8,5.00,0.00,29.8,29.0,00.0,39.0,31.8,18.2,0036.97,0025.22
2021-08-12 12:24:00,FlowAlarm;OPCInstrumentWarning,0829.9,5.02,0.00,29.8,29.0,00.0,39.0,31.8,18.5,0037.09,0025.33
2021-08-12 12:25:00,FlowAlarm;OPCInstrumentWarning,0830.0,4.99,0.00,29.9,29.1,00.0,39.0,31.9,18.6,0036.76,0025.31
2021-08-12 12:26:00,FlowAlarm;OPCInstrumentWarning,0830.1,5.01,0.00,29.9,29.1,00.0,39.0,31.9,18.2,0036.97,0025.32
2021-08-12 12:27:00,FlowAlarm;OPCInstrumentWarning,0830.1,4.99,0.00,29.9,29.2,00.0,39.0,31.9,17.9,0036.85,0025.32
2021-08-12 12:28:00,FlowAlarm;OPCInstrumentWarning,0830.1,5.00,0.00,29.9,29.2,00.0,39.1,31.9,17.9,0036.92,0025.37
2021-08-12 12:29:00,FlowAlarm;OPCInstrumentWarning,0830.1,5.01,0.00,30.0,29.2,00.0,39.1,31.9,17.4,0037.31,0025.41
2021-08-12 12:30:00,FlowAlarm;OPCInstrumentWarning,0830.1,5.01,0.00,30.0,29.3,00.0,39.1,32.0,16.9,0036.05,0025.39
2021-08-12 12:31:00,FlowAlarm;OPCInstrumentWarning,0830.1,4.99,0.00,30.0,29.3,00.0,39.1,32.0,16.9,0034.96,0025.31
2021-08-12 12:32:00,FlowAlarm;OPCInstrumentWarning,0830.1,5.00,0.00,30.1,29.3,00.0,39.2,32.0,16.9,0034.86,0025.30
2021-08-12 12:33:00,FlowAlarm;OPCInstrumentWarning,0830.1,5.01,0.00,30.1,29.3,00.0,39.2,32.0,16.7,0034.76,0025.26
2021-08-12 12:34:00,FlowAlarm;OPCInstrumentWarning,0830.1,5.01,0.00,30.1,28.6,00.0,39.2,31.8,16.7,0034.79,0025.25
2021-08-12 12:35:00,FlowAlarm;OPCInstrumentWarning,0830.1,4.99,0.00,29.9,26.4,00.0,39.1,31.3,16.6,0034.88,0025.21
2021-08-12 12:36:00,FlowAlarm;OPCInstrumentWarning,0830.2,5.02,0.00,29.8,25.6,00.0,39.1,31.1,16.6,0035.18,0025.25
2021-08-12 12:37:00,FlowAlarm;OPCInstrumentWarning,0830.2,5.00,0.00,29.6,25.8,00.0,39.0,31.1,16.8,0036.10,0025.29
2021-08-12 12:38:00,FlowAlarm;OPCInstrumentWarning,0830.2,4.98,0.00,29.5,26.3,00.0,38.9,31.1,17.1,0036.47,0025.35
2021-08-12 12:39:00,FlowAlarm;OPCInstrumentWarning,0830.3,5.01,0.00,29.4,26.8,00.0,38.9,31.1,17.1,0036.57,0025.30
2021-08-12 12:40:00,FlowAlarm;OPCInstrumentWarning,0830.3,5.00,0.00,29.4,27.2,00.0,38.8,31.2,17.0,0035.87,0025.27
2021-08-12 12:41:00,FlowAlarm;OPCInstrumentWarning,0830.4,4.99,0.00,29.4,27.5,00.0,38.8,31.2,16.9,0035.63,0025.20
2021-08-12 12:42:00,FlowAlarm;OPCInstrumentWarning,0830.5,5.00,0.00,29.4,27.8,00.0,38.8,31.3,16.9,0035.85,0025.24
2021-08-12 12:43:00,FlowAlarm;OPCInstrumentWarning,0830.4,5.00,0.00,29.4,28.0,00.0,38.8,31.3,17.0,0036.02,0025.29
2021-08-12 12:44:00,FlowAlarm;OPCInstrumentWarning,0830.4,4.98,0.00,29.4,28.1,00.0,38.8,31.3,16.8,0036.10,0025.23
2021-08-12 12:45:00,FlowAlarm;OPCInstrumentWarning,0830.5,5.02,0.00,29.4,28.3,00.0,38.8,31.4,16.8,0035.74,0025.12
2021-08-12 12:46:00,FlowAlarm;OPCInstrumentWarning,0830.5,4.98,0.00,29.5,28.4,00.0,38.8,31.4,16.8,0036.10,0025.07
2021-08-12 12:47:00,FlowAlarm;OPCInstrumentWarning,0830.5,5.00,0.00,29.5,28.5,00.0,38.8,31.5,16.5,0035.70,0024.98
2021-08-12 12:48:00,FlowAlarm;OPCInstrumentWarning,0830.6,4.99,0.00,29.5,28.6,00.0,38.8,31.5,16.3,0034.64,0024.85
2021-08-12 12:49:00,FlowAlarm;OPCInstrumentWarning,0830.6,5.01,0.00,29.6,28.7,00.0,38.8,31.5,16.3,0034.72,0024.69
2021-08-12 12:50:00,FlowAlarm;OPCInstrumentWarning,0830.6,4.99,0.00,29.6,28.7,00.0,38.8,31.6,15.8,0034.89,0024.53
2021-08-12 12:51:00,FlowAlarm;OPCInstrumentWarning,0830.6,5.01,0.00,29.6,28.8,00.0,38.8,31.6,15.6,0035.32,0024.38
2021-08-12 12:52:00,FlowAlarm;OPCInstrumentWarning,0830.6,4.98,0.00,29.7,28.9,00.0,38.8,31.6,15.6,0035.82,0024.27
2021-08-12 12:53:00,FlowAlarm;OPCInstrumentWarning,0830.7,5.02,0.00,29.7,28.9,00.0,38.8,31.7,15.6,0035.91,0024.10
2021-08-12 12:54:00,FlowAlarm;OPCInstrumentWarning,0830.8,5.01,0.00,29.7,29.0,00.0,38.8,31.7,15.7,0035.43,0023.93
2021-08-12 12:55:00,FlowAlarm;OPCInstrumentWarning,0830.7,5.00,0.00,29.7,29.0,00.0,38.9,31.7,15.6,0035.20,0023.84
2021-08-12 12:56:00,FlowAlarm;OPCInstrumentWarning,0830.7,4.98,0.00,29.8,29.0,00.0,38.9,31.7,15.7,0035.46,0023.83
2021-08-12 12:57:00,FlowAlarm;OPCInstrumentWarning,0830.8,5.02,0.00,29.8,29.1,00.0,38.9,31.8,15.8,0035.10,0023.79
2021-08-12 12:58:00,FlowAlarm;OPCInstrumentWarning,0830.9,4.99,0.00,29.8,29.1,00.0,38.9,31.8,15.7,0035.00,0023.70
2021-08-12 12:59:00,FlowAlarm;OPCInstrumentWarning,0830.9,5.00,0.00,29.9,29.1,00.0,39.0,31.9,15.6,0034.39,0023.60
